Location: Unspecified
(51.0950°N, 12.9690°E)
Time: 22:51:35
(UTC+00:00)

Cosmos 304 Rocket - Pass Details

Date: 28 October 2021
Orbit: 678 x 688 km, 74.0° (Epoch: 01 December)

Event Time Altitude Azimuth Distance (km) Brightness Sun altitude
Rises 16:30:22 0° 186° (S) 3,027 7.3 -7.0°
Reaches altitude 10° 16:32:43 10° 180° (S) 2,118 6.5 -7.4°
Maximum altitude 16:37:17 48° 107° (ESE) 895 4.0 -8.1°
Drops below altitude 10° 16:41:54 10° 34° (NE) 2,140 5.9 -8.8°
Sets 16:44:17 0° 29° (NNE) 3,062 6.7 -9.2°
